UAL3731 KRIV-KFOE

Flight info

Callsign UAL3731
Flight time N/A
Altitude 37000
Route SKYES4 TRM DCT AVRRY DCT PKE J96 DRK/N0478F390 J96 CIM DCT SLN DCT
Aircraft B789/H-SADE3GHIJ1J2J4J5M1P2RWXYZ/LB1D1

Departure

Time N/A
Airport March Air Reserve Base (KRIV)

Arrival

Time 2026-04-20 20:49
Airport Topeka Regional Airport (KFOE)
Time Latitude Longitude Altitude Speed Heading
2026-04-20 18:56 34.55090 -113.05326 36984 ft 485 kts 70°
2026-04-20 18:56 34.56014 -113.01873 36985 ft 485 kts 70°
2026-04-20 18:57 34.58089 -112.94091 36986 ft 485 kts 70°
2026-04-20 18:57 34.60158 -112.86315 36986 ft 484 kts 70°
2026-04-20 18:58 34.62208 -112.78590 37026 ft 484 kts 70°
2026-04-20 18:58 34.64264 -112.70814 37083 ft 483 kts 70°
2026-04-20 18:59 34.66318 -112.63033 37139 ft 484 kts 70°
2026-04-20 18:59 34.68366 -112.55243 37180 ft 484 kts 69°
2026-04-20 19:00 34.70394 -112.47449 37208 ft 483 kts 72°
2026-04-20 19:00 34.72202 -112.39584 37206 ft 484 kts 71°
2026-04-20 19:01 34.74029 -112.31702 37179 ft 485 kts 72°
2026-04-20 19:01 34.75827 -112.23817 37123 ft 483 kts 71°
2026-04-20 19:02 34.77618 -112.16018 37087 ft 482 kts 71°
2026-04-20 19:02 34.79409 -112.08144 37089 ft 484 kts 71°
2026-04-20 19:03 34.81205 -112.00251 37134 ft 484 kts 71°
2026-04-20 19:03 34.82994 -111.92343 37175 ft 484 kts 71°
2026-04-20 19:04 34.84777 -111.84450 37198 ft 484 kts 71°
2026-04-20 19:04 34.86554 -111.76548 37186 ft 483 kts 71°
2026-04-20 19:05 34.88324 -111.68658 37190 ft 483 kts 71°
2026-04-20 19:05 34.90093 -111.60742 37150 ft 485 kts 71°
2026-04-20 19:06 34.91860 -111.52807 37137 ft 485 kts 71°
2026-04-20 19:06 34.93621 -111.44878 37116 ft 484 kts 71°
2026-04-20 19:07 34.95374 -111.36951 37080 ft 484 kts 72°
2026-04-20 19:07 34.97123 -111.29025 37037 ft 484 kts 72°
2026-04-20 19:08 34.99723 -111.17174 37023 ft 485 kts 72°
2026-04-20 19:09 35.01465 -111.09205 37053 ft 486 kts 72°
2026-04-20 19:09 35.03204 -111.01228 37088 ft 487 kts 72°
2026-04-20 19:10 35.04936 -110.93240 37127 ft 487 kts 72°
2026-04-20 19:10 35.06668 -110.85239 37165 ft 487 kts 72°
2026-04-20 19:11 35.08393 -110.77239 37183 ft 487 kts 73°
2026-04-20 19:11 35.10114 -110.69230 37183 ft 488 kts 73°
2026-04-20 19:12 35.11821 -110.61254 37156 ft 488 kts 73°
2026-04-20 19:12 35.13536 -110.53223 37113 ft 489 kts 73°
2026-04-20 19:13 35.15244 -110.45179 37069 ft 489 kts 73°
2026-04-20 19:13 35.16949 -110.37130 37019 ft 489 kts 73°
2026-04-20 19:14 35.18653 -110.29064 36992 ft 491 kts 73°
2026-04-20 19:14 35.20352 -110.20984 36994 ft 491 kts 73°
2026-04-20 19:15 35.22036 -110.12950 36983 ft 491 kts 74°
2026-04-20 19:15 35.23728 -110.04852 36980 ft 491 kts 74°
2026-04-20 19:16 35.25411 -109.96763 36977 ft 491 kts 74°
2026-04-20 19:16 35.27093 -109.88652 36975 ft 492 kts 74°
2026-04-20 19:17 35.28771 -109.80531 36973 ft 492 kts 74°
2026-04-20 19:17 35.30441 -109.72416 36972 ft 492 kts 74°
2026-04-20 19:18 35.32106 -109.64292 36972 ft 492 kts 75°
2026-04-20 19:18 35.33770 -109.56156 36969 ft 492 kts 75°
2026-04-20 19:19 35.35428 -109.48018 36963 ft 492 kts 75°
2026-04-20 19:19 35.37067 -109.39926 36958 ft 492 kts 75°
2026-04-20 19:20 35.38723 -109.31740 36983 ft 493 kts 75°
2026-04-20 19:20 35.40366 -109.23570 37036 ft 494 kts 75°
2026-04-20 19:21 35.41995 -109.15450 37083 ft 494 kts 75°
2026-04-20 19:21 35.43630 -109.07262 37111 ft 494 kts 75°
2026-04-20 19:22 35.45263 -108.99063 37145 ft 495 kts 75°
2026-04-20 19:22 35.46891 -108.90851 37226 ft 495 kts 75°
2026-04-20 19:23 35.48824 -108.82758 37247 ft 495 kts 70°
2026-04-20 19:23 35.51027 -108.74742 37249 ft 496 kts 70°
2026-04-20 19:24 35.53207 -108.66704 37231 ft 495 kts 71°
2026-04-20 19:24 35.55375 -108.58724 37157 ft 496 kts 71°
2026-04-20 19:25 35.57548 -108.50687 37084 ft 496 kts 71°
2026-04-20 19:25 35.59721 -108.42632 37017 ft 497 kts 71°
2026-04-20 19:26 35.61891 -108.34566 36976 ft 496 kts 71°
2026-04-20 19:26 35.64053 -108.26492 36990 ft 497 kts 71°
2026-04-20 19:27 35.66212 -108.18417 36995 ft 497 kts 71°
2026-04-20 19:27 35.68366 -108.10335 37002 ft 498 kts 71°
2026-04-20 19:28 35.70515 -108.02245 37010 ft 497 kts 71°
2026-04-20 19:28 35.72658 -107.94149 37019 ft 497 kts 72°
2026-04-20 19:29 35.74796 -107.86045 37030 ft 498 kts 72°
2026-04-20 19:29 35.76931 -107.77943 37040 ft 499 kts 72°
2026-04-20 19:30 35.79050 -107.69859 37049 ft 499 kts 72°
2026-04-20 19:30 35.81180 -107.61724 37061 ft 498 kts 72°
2026-04-20 19:31 35.83299 -107.53598 37064 ft 497 kts 72°
2026-04-20 19:31 35.85408 -107.45476 37077 ft 499 kts 72°
2026-04-20 19:32 35.87524 -107.37320 37087 ft 500 kts 72°
2026-04-20 19:32 35.89633 -107.29155 37099 ft 500 kts 72°
2026-04-20 19:33 35.91741 -107.20972 37101 ft 500 kts 72°
2026-04-20 19:33 35.93842 -107.12793 37106 ft 500 kts 72°
2026-04-20 19:34 35.95930 -107.04625 37105 ft 499 kts 72°
2026-04-20 19:34 35.98014 -106.96458 37106 ft 499 kts 73°
2026-04-20 19:35 36.00098 -106.88265 37104 ft 501 kts 73°
2026-04-20 19:35 36.02174 -106.80065 37109 ft 501 kts 73°
2026-04-20 19:36 36.04252 -106.71850 37103 ft 500 kts 73°
2026-04-20 19:36 36.06303 -106.63691 37101 ft 500 kts 73°
2026-04-20 19:37 36.08365 -106.55492 37126 ft 500 kts 73°
2026-04-20 19:37 36.10416 -106.47279 37133 ft 499 kts 73°
2026-04-20 19:38 36.12466 -106.39086 37137 ft 498 kts 73°
2026-04-20 19:38 36.14491 -106.30900 37137 ft 498 kts 73°
2026-04-20 19:39 36.16528 -106.22694 37113 ft 499 kts 73°
2026-04-20 19:39 36.18552 -106.14480 37091 ft 499 kts 73°
2026-04-20 19:40 36.20582 -106.06258 37057 ft 500 kts 73°
2026-04-20 19:40 36.22597 -105.98032 37057 ft 498 kts 73°
2026-04-20 19:41 36.24611 -105.89827 37061 ft 498 kts 73°
2026-04-20 19:41 36.26274 -105.82981 37062 ft 499 kts 73°
2026-04-20 19:42 36.28271 -105.74765 37072 ft 498 kts 74°
2026-04-20 19:42 36.30601 -105.65157 37113 ft 501 kts 74°
2026-04-20 19:43 36.32587 -105.56894 37171 ft 498 kts 73°
2026-04-20 19:43 36.34575 -105.48655 37218 ft 499 kts 74°
2026-04-20 19:44 36.36551 -105.40395 37263 ft 499 kts 73°
2026-04-20 19:44 36.38527 -105.32135 37277 ft 499 kts 74°
2026-04-20 19:45 36.40160 -105.25266 37276 ft 499 kts 74°
2026-04-20 19:45 36.42127 -105.16989 37273 ft 501 kts 74°
2026-04-20 19:46 36.44087 -105.08699 37217 ft 500 kts 74°
2026-04-20 19:46 36.46046 -105.00394 37152 ft 501 kts 74°
2026-04-20 19:47 36.47995 -104.92079 37095 ft 502 kts 74°
2026-04-20 19:47 36.50363 -104.83933 37035 ft 503 kts 65°
2026-04-20 19:48 36.53324 -104.76132 37078 ft 502 kts 65°
2026-04-20 19:48 36.56265 -104.68292 37116 ft 500 kts 65°
2026-04-20 19:49 36.59212 -104.60446 37150 ft 500 kts 65°
2026-04-20 19:49 36.62154 -104.52576 37179 ft 502 kts 65°
2026-04-20 19:50 36.65094 -104.44717 37194 ft 501 kts 65°
2026-04-20 19:50 36.68025 -104.36837 37180 ft 500 kts 65°
2026-04-20 19:51 36.70951 -104.28962 37154 ft 502 kts 65°
2026-04-20 19:51 36.73881 -104.21054 37113 ft 502 kts 65°
2026-04-20 19:52 36.76804 -104.13148 37069 ft 503 kts 65°
2026-04-20 19:52 36.79716 -104.05241 37027 ft 501 kts 65°
2026-04-20 19:53 36.82630 -103.97325 37025 ft 502 kts 65°
2026-04-20 19:53 36.85521 -103.89439 37016 ft 502 kts 65°
2026-04-20 19:54 36.88424 -103.81498 37017 ft 503 kts 65°
2026-04-20 19:54 36.91326 -103.73552 37014 ft 502 kts 65°
2026-04-20 19:55 36.94218 -103.65598 37006 ft 503 kts 65°
2026-04-20 19:55 36.97111 -103.57635 37005 ft 503 kts 65°
2026-04-20 19:56 36.99992 -103.49675 37009 ft 502 kts 65°
2026-04-20 19:56 37.02869 -103.41712 37010 ft 502 kts 65°
2026-04-20 19:57 37.05739 -103.33737 37011 ft 503 kts 65°
2026-04-20 19:57 37.08609 -103.25747 37005 ft 503 kts 65°
2026-04-20 19:58 37.11478 -103.17738 37001 ft 504 kts 65°
2026-04-20 19:58 37.14346 -103.09716 36993 ft 504 kts 65°
2026-04-20 19:59 37.17205 -103.01691 36990 ft 504 kts 65°
2026-04-20 19:59 37.20065 -102.93645 36980 ft 506 kts 65°
2026-04-20 20:00 37.22929 -102.85580 36971 ft 505 kts 66°
2026-04-20 20:00 37.25780 -102.77501 36962 ft 507 kts 65°
2026-04-20 20:01 37.28639 -102.69412 36960 ft 507 kts 66°
2026-04-20 20:01 37.31479 -102.61311 36955 ft 507 kts 65°
2026-04-20 20:02 37.34330 -102.53202 36953 ft 507 kts 66°
2026-04-20 20:02 37.37169 -102.45062 36959 ft 508 kts 66°
2026-04-20 20:03 37.39986 -102.36995 36968 ft 507 kts 66°
2026-04-20 20:03 37.42823 -102.28844 36966 ft 509 kts 66°
2026-04-20 20:04 37.45663 -102.20660 36967 ft 508 kts 66°
2026-04-20 20:04 37.48485 -102.12491 36974 ft 508 kts 66°
2026-04-20 20:05 37.51313 -102.04318 37003 ft 509 kts 66°
2026-04-20 20:05 37.54106 -101.96175 37038 ft 511 kts 66°
2026-04-20 20:06 37.56928 -101.87963 37064 ft 511 kts 66°
2026-04-20 20:06 37.59746 -101.79725 37061 ft 511 kts 66°
2026-04-20 20:07 37.62547 -101.71515 37058 ft 510 kts 66°
2026-04-20 20:07 37.65352 -101.63275 37063 ft 512 kts 66°
2026-04-20 20:08 37.68155 -101.55008 37048 ft 512 kts 66°
2026-04-20 20:08 37.70957 -101.46728 37051 ft 513 kts 66°
2026-04-20 20:09 37.73750 -101.38448 37053 ft 512 kts 66°
2026-04-20 20:09 37.76539 -101.30165 37046 ft 512 kts 66°
2026-04-20 20:10 37.79323 -101.21859 37045 ft 513 kts 66°
2026-04-20 20:10 37.82102 -101.13563 37040 ft 513 kts 66°
2026-04-20 20:11 37.84873 -101.05254 37238 ft 511 kts 66°
2026-04-20 20:11 37.86251 -101.01112 37478 ft 511 kts 66°
2026-04-20 20:11 37.87624 -100.96970 37669 ft 511 kts 66°
2026-04-20 20:11 37.89002 -100.92823 37887 ft 511 kts 66°
2026-04-20 20:12 37.90380 -100.88675 38083 ft 511 kts 66°
2026-04-20 20:12 37.91736 -100.84574 38307 ft 511 kts 66°
2026-04-20 20:12 37.93106 -100.80427 38492 ft 511 kts 66°
2026-04-20 20:13 37.95851 -100.72105 38830 ft 512 kts 66°
2026-04-20 20:13 37.97219 -100.67941 38955 ft 513 kts 66°
2026-04-20 20:13 37.98593 -100.63767 39084 ft 513 kts 66°
2026-04-20 20:13 37.99966 -100.59591 39190 ft 514 kts 66°
2026-04-20 20:14 38.01338 -100.55399 39305 ft 515 kts 66°
2026-04-20 20:14 38.02708 -100.51205 39404 ft 515 kts 66°
2026-04-20 20:14 38.04082 -100.47000 39520 ft 516 kts 65°
2026-04-20 20:14 38.05459 -100.42786 39635 ft 517 kts 65°
2026-04-20 20:15 38.06829 -100.38577 39742 ft 518 kts 65°
2026-04-20 20:15 38.08204 -100.34348 39846 ft 518 kts 65°
2026-04-20 20:15 38.09579 -100.30113 39966 ft 519 kts 65°
2026-04-20 20:15 38.10957 -100.25874 40082 ft 519 kts 65°
2026-04-20 20:16 38.13705 -100.17369 40267 ft 521 kts 65°
2026-04-20 20:16 38.16456 -100.08844 40488 ft 522 kts 65°
2026-04-20 20:17 38.17815 -100.04634 40620 ft 522 kts 65°
2026-04-20 20:17 38.19190 -100.00352 40712 ft 523 kts 65°
2026-04-20 20:17 38.20563 -99.96066 40818 ft 524 kts 65°
2026-04-20 20:17 38.21937 -99.91769 40923 ft 525 kts 65°
2026-04-20 20:18 38.23316 -99.87467 41036 ft 525 kts 65°
2026-04-20 20:18 38.24696 -99.83154 41048 ft 528 kts 65°
2026-04-20 20:18 38.27454 -99.74491 41046 ft 527 kts 65°
2026-04-20 20:19 38.30198 -99.65862 41051 ft 525 kts 65°
2026-04-20 20:19 38.32929 -99.57238 41051 ft 525 kts 65°
2026-04-20 20:20 38.35654 -99.48611 41057 ft 525 kts 65°
2026-04-20 20:20 38.38370 -99.39982 41061 ft 524 kts 65°
2026-04-20 20:21 38.41078 -99.31354 41073 ft 524 kts 65°
2026-04-20 20:21 38.43765 -99.22768 41076 ft 525 kts 66°
2026-04-20 20:22 38.46467 -99.14105 41085 ft 525 kts 66°
2026-04-20 20:22 38.49160 -99.05446 41095 ft 525 kts 66°
2026-04-20 20:23 38.51849 -98.96773 41094 ft 525 kts 66°
2026-04-20 20:23 38.54526 -98.88110 41093 ft 525 kts 66°
2026-04-20 20:24 38.57198 -98.79437 41092 ft 525 kts 66°
2026-04-20 20:24 38.59869 -98.70739 41084 ft 525 kts 66°
2026-04-20 20:25 38.62526 -98.62058 41072 ft 524 kts 66°
2026-04-20 20:25 38.65161 -98.53425 41076 ft 524 kts 66°
2026-04-20 20:26 38.67806 -98.44731 41072 ft 524 kts 66°
2026-04-20 20:26 38.70447 -98.36022 41074 ft 524 kts 66°
2026-04-20 20:27 38.73078 -98.27317 41078 ft 524 kts 66°
2026-04-20 20:27 38.75708 -98.18594 40293 ft 527 kts 66°
2026-04-20 20:28 38.76578 -98.15696 39911 ft 526 kts 66°
2026-04-20 20:28 38.78331 -98.09853 39145 ft 524 kts 66°
2026-04-20 20:28 38.79640 -98.05489 38496 ft 524 kts 67°
2026-04-20 20:28 38.80941 -98.01138 37856 ft 521 kts 67°
2026-04-20 20:29 38.82232 -97.96812 37226 ft 518 kts 67°
2026-04-20 20:29 38.83514 -97.92515 36572 ft 515 kts 67°
2026-04-20 20:29 38.84790 -97.88231 35918 ft 513 kts 67°
2026-04-20 20:29 38.86059 -97.83963 35230 ft 512 kts 67°
2026-04-20 20:30 38.86898 -97.81138 34759 ft 511 kts 67°
2026-04-20 20:30 38.88587 -97.75437 33752 ft 511 kts 67°
2026-04-20 20:30 38.89420 -97.72616 33250 ft 509 kts 67°
2026-04-20 20:30 38.90675 -97.68370 32513 ft 507 kts 67°
2026-04-20 20:31 38.91873 -97.64122 31804 ft 505 kts 72°
2026-04-20 20:31 38.92526 -97.59700 31090 ft 505 kts 84°
2026-04-20 20:31 38.92706 -97.53748 30138 ft 503 kts 87°
2026-04-20 20:31 38.92766 -97.50720 29620 ft 501 kts 87°
2026-04-20 20:32 38.92842 -97.46270 28924 ft 496 kts 87°
2026-04-20 20:32 38.92927 -97.41869 28252 ft 491 kts 87°
2026-04-20 20:32 38.93020 -97.37495 27576 ft 487 kts 87°
2026-04-20 20:32 38.93106 -97.33172 26897 ft 483 kts 87°
2026-04-20 20:33 38.93184 -97.28879 26233 ft 479 kts 87°
2026-04-20 20:33 38.93261 -97.24627 25576 ft 475 kts 87°
2026-04-20 20:33 38.93339 -97.20455 24932 ft 471 kts 87°
2026-04-20 20:33 38.93416 -97.16269 24289 ft 467 kts 87°
2026-04-20 20:34 38.93486 -97.12111 23647 ft 464 kts 87°
2026-04-20 20:34 38.93555 -97.07993 22972 ft 459 kts 87°
2026-04-20 20:34 38.93625 -97.03917 22349 ft 453 kts 87°
2026-04-20 20:34 38.93690 -96.99899 21735 ft 447 kts 87°
2026-04-20 20:35 38.93753 -96.95929 21125 ft 442 kts 87°
2026-04-20 20:35 38.93814 -96.92008 20530 ft 436 kts 88°
2026-04-20 20:35 38.93876 -96.88133 19944 ft 431 kts 88°
2026-04-20 20:35 38.93934 -96.84303 19354 ft 427 kts 88°
2026-04-20 20:36 38.93989 -96.80507 18774 ft 423 kts 88°
2026-04-20 20:36 38.94042 -96.76746 18188 ft 419 kts 88°
2026-04-20 20:36 38.94096 -96.73031 17609 ft 413 kts 88°
2026-04-20 20:36 38.94145 -96.69372 17049 ft 407 kts 88°
2026-04-20 20:37 38.94194 -96.65762 16506 ft 401 kts 88°
2026-04-20 20:37 38.94242 -96.62208 15961 ft 395 kts 88°
2026-04-20 20:37 38.94286 -96.58703 15439 ft 390 kts 88°
2026-04-20 20:37 38.94329 -96.55223 14913 ft 387 kts 88°
2026-04-20 20:38 38.94372 -96.51785 14400 ft 383 kts 88°
2026-04-20 20:38 38.94412 -96.48369 13882 ft 381 kts 88°
2026-04-20 20:38 38.94450 -96.44986 13346 ft 377 kts 88°
2026-04-20 20:38 38.94491 -96.41632 13119 ft 373 kts 88°
2026-04-20 20:39 38.94528 -96.38291 13132 ft 378 kts 88°
2026-04-20 20:39 38.94609 -96.34885 12924 ft 381 kts 84°
2026-04-20 20:39 38.94992 -96.31604 12621 ft 359 kts 76°
2026-04-20 20:39 38.95553 -96.28620 12321 ft 331 kts 73°
2026-04-20 20:40 38.96142 -96.25858 12023 ft 321 kts 72°
2026-04-20 20:40 38.96762 -96.23088 11868 ft 312 kts 72°
2026-04-20 20:40 38.97344 -96.20510 11320 ft 294 kts 72°
2026-04-20 20:40 38.97931 -96.17976 10409 ft 297 kts 72°
2026-04-20 20:41 38.98532 -96.15454 9599 ft 293 kts 72°
2026-04-20 20:41 38.99143 -96.12964 8719 ft 290 kts 72°
2026-04-20 20:41 38.99763 -96.10524 7880 ft 285 kts 72°
2026-04-20 20:41 39.00389 -96.08144 7429 ft 272 kts 72°
2026-04-20 20:42 39.01020 -96.05815 7270 ft 283 kts 72°
2026-04-20 20:42 39.01681 -96.03400 7052 ft 284 kts 72°
2026-04-20 20:42 39.02330 -96.01051 6830 ft 273 kts 72°
2026-04-20 20:42 39.02953 -95.98805 6574 ft 262 kts 72°
2026-04-20 20:43 39.03561 -95.96631 6319 ft 255 kts 72°
2026-04-20 20:43 39.04160 -95.94533 6075 ft 244 kts 72°
2026-04-20 20:43 39.04744 -95.92516 5841 ft 236 kts 72°
2026-04-20 20:43 39.05317 -95.90569 5634 ft 229 kts 72°
2026-04-20 20:44 39.05914 -95.88654 5189 ft 235 kts 68°
2026-04-20 20:44 39.07016 -95.87094 4732 ft 242 kts 37°
2026-04-20 20:44 39.08285 -95.85786 4551 ft 228 kts 53°
2026-04-20 20:44 39.08765 -95.83975 4342 ft 208 kts 95°
2026-04-20 20:45 39.08459 -95.82290 4193 ft 180 kts 122°
2026-04-20 20:45 39.07739 -95.81101 3975 ft 159 kts 144°
2026-04-20 20:45 39.06932 -95.80188 3812 ft 152 kts 146°
2026-04-20 20:45 39.06146 -95.79269 3575 ft 154 kts 144°
2026-04-20 20:46 39.05336 -95.78306 3388 ft 163 kts 144°
2026-04-20 20:46 39.04539 -95.77339 3188 ft 154 kts 146°
2026-04-20 20:46 39.03759 -95.76406 2973 ft 154 kts 145°
2026-04-20 20:46 39.02965 -95.75465 2797 ft 156 kts 145°
2026-04-20 20:47 39.02172 -95.74514 2574 ft 157 kts 145°
2026-04-20 20:47 39.01376 -95.73559 2366 ft 154 kts 146°
2026-04-20 20:47 39.00590 -95.72629 2154 ft 154 kts 145°
2026-04-20 20:47 38.99809 -95.71691 1930 ft 152 kts 144°
2026-04-20 20:48 38.99050 -95.70767 1773 ft 148 kts 148°
2026-04-20 20:48 38.98282 -95.69847 1542 ft 154 kts 144°
2026-04-20 20:48 38.97500 -95.68920 1309 ft 150 kts 144°
2026-04-20 20:48 38.96722 -95.67993 1157 ft 150 kts 145°
2026-04-20 20:49 38.96015 -95.67160 1077 ft 116 kts 136°
2026-04-20 20:49 38.95582 -95.66634 1066 ft 61 kts 134°
2026-04-20 20:49 38.95341 -95.66348 1066 ft 31 kts 139°
2026-04-20 20:49 38.95217 -95.66209 1065 ft 20 kts 139°
2026-04-20 20:50 38.95137 -95.66154 1064 ft 5 kts 184°
2026-04-20 20:50 38.95101 -95.66172 1064 ft 4 kts 214°
2026-04-20 20:50 38.95068 -95.66211 1065 ft 8 kts 223°
2026-04-20 20:50 38.95011 -95.66275 1068 ft 15 kts 221°
2026-04-20 20:51 38.94906 -95.66391 1069 ft 24 kts 221°
2026-04-20 20:51 38.94818 -95.66494 1076 ft 12 kts 237°
2026-04-20 20:51 38.94811 -95.66539 1073 ft 5 kts 279°
2026-04-20 20:51 38.94835 -95.66591 1077 ft 10 kts 313°
2026-04-20 20:52 38.94930 -95.66696 1077 ft 26 kts 319°
2026-04-20 20:52 38.95098 -95.66889 1071 ft 34 kts 317°
2026-04-20 20:52 38.95269 -95.67061 1070 ft 27 kts 320°
2026-04-20 20:52 38.95378 -95.67193 1073 ft 18 kts 301°
2026-04-20 20:53 38.95398 -95.67340 1071 ft 16 kts 271°
2026-04-20 20:53 38.95400 -95.67469 1075 ft 7 kts 278°
2026-04-20 20:53 38.95414 -95.67498 1072 ft 4 kts 321°
2026-04-20 20:53 38.95436 -95.67505 1074 ft 3 kts 358°
2026-04-20 20:54 38.95441 -95.67505 1074 ft 0 kts 358°